Regional Weather Roundup
Issued by NWS

Home | Current Version | Previous Version | Graphics & Text | Print | Product List | Glossary On
Versions: 1 2 3 4 5 6 7 8 9 10 11 12 13 14 15 16 17 18 19 20 21 22 23 24 25 26 27 28 29 30 31 32 33 34 35 36 37 38 39 40 41 42 43 44 45 46 47 48 49 50
000
ASUS43 KOAX 281210
RWRNE

WEATHER ROUNDUP FOR NEBRASKA
NATIONAL WEATHER SERVICE OMAHA NE
700 AM CDT WED SEP 28 2016

NOTES: SATELLITE DATA IS BEING USED TO AUGMENT CLOUD COVER ABOVE
       12000 FEET.
       "FAIR" INDICATES FEW OR NO CLOUDS BELOW 12,000 FEET WITH NO
       SIGNIFICANT WEATHER AND/OR OBSTRUCTIONS TO VISIBILITY.

  * THESE STATIONS DO NOT REPORT WEATHER SUCH AS RAIN...SNOW OR FOG.

NEZ001>004-019>022-054>056-281300-
NEBRASKA PANHANDLE

CITY           SKY/WX    TMP DP  RH WIND       PRES   REMARKS
SCOTTSBLUFF    CLEAR     47  39  74 NW7       30.23R
6HR MIN TEMP:  47; 6HR MAX TEMP:  53;

ALLIANCE       CLEAR     40  38  93 W7        30.21R
6HR MIN TEMP:  38; 6HR MAX TEMP:  46;

CHADRON        CLEAR     44  40  85 SW5       30.21R
6HR MIN TEMP:  43; 6HR MAX TEMP:  50;

KIMBALL        CLEAR     44  37  75 W6        30.26S
SIDNEY         CLEAR     44  37  76 NW12      30.23R
6HR MIN TEMP:  42; 6HR MAX TEMP:  49;

$$

NEZ057>060-069>072-079>082-281300-
SOUTHWEST NEBRASKA

CITY           SKY/WX    TMP DP  RH WIND       PRES   REMARKS
NORTH PLATTE   CLEAR     42  39  89 CALM      30.16R
6HR MIN TEMP:  41; 6HR MAX TEMP:  49;

IMPERIAL       CLEAR     47  38  71 NW5       30.16R
6HR MIN TEMP:  47; 6HR MAX TEMP:  55;

LEXINGTON      CLEAR     42  40  90 NW3       30.13R
MCCOOK         CLEAR     45  40  82 W7        30.13R
6HR MIN TEMP:  45; 6HR MAX TEMP:  54;

OGALLALA       CLEAR     42  39  89 W5        30.18R
$$

NEZ005>010-023>029-035>040-094-281300-
NORTH CENTRAL NEBRASKA

CITY           SKY/WX    TMP DP  RH WIND       PRES   REMARKS
VALENTINE      CLOUDY    38  35  89 CALM      30.17R
6HR MIN TEMP:  38; 6HR MAX TEMP:  48;

AINSWORTH      CLOUDY    42  40  93 N6        30.16R
BROKEN BOW     CLEAR     46  42  86 N6        30.13R
6HR MIN TEMP:  42; 6HR MAX TEMP:  49;

O`NEILL        CLOUDY    44  38  79 N7        30.14R
ORD            CLEAR     46  39  76 W7        30.12R
6HR MIN TEMP:  43; 6HR MAX TEMP:  50; 6HR PCP: TRACE;

THEDFORD       CLEAR     44  41  89 CALM      30.17R
$$

NEZ041-046>049-061>064-073>077-083>087-281300-
SOUTH CENTRAL NEBRASKA

CITY           SKY/WX    TMP DP  RH WIND       PRES   REMARKS
GRAND ISLAND   CLEAR     46  42  86 NW8       30.10R
6HR MIN TEMP:  46; 6HR MAX TEMP:  53;

AURORA         CLEAR     49  45  86 N8        30.08R
HASTINGS       CLEAR     50  44  80 N7        30.10R
6HR MIN TEMP:  50; 6HR MAX TEMP:  56;

HEBRON         CLEAR     53  44  70 N5        30.05R
HOLDREGE       CLEAR     50  43  77 N7        30.11R
KEARNEY *      CLEAR     48  41  76 N7        30.11R
YORK           CLEAR     46  43  87 N8        30.09R
$$

NEZ011>018-030>034-042>045-281300-
NORTHEAST NEBRASKA

CITY           SKY/WX    TMP DP  RH WIND       PRES   REMARKS
NORFOLK        CLOUDY    42  37  82 NW7       30.10R
6HR MIN TEMP:  42; 6HR MAX TEMP:  52;

ALBION         CLOUDY    41  39  90 NW5       30.11R
BLAIR          CLEAR     47  42  84 N7        30.05R
FREMONT        CLEAR     45  41  84 NW6       30.08R
TEKAMAH        PTCLDY    45  41  86 N7        30.07R
6HR MIN TEMP:  44; 6HR MAX TEMP:  53;

WAYNE          CLOUDY    42  39  89 CALM      30.11R
$$

NEZ050>053-065>068-078-088>093-281300-
SOUTHEAST NEBRASKA

CITY           SKY/WX    TMP DP  RH WIND       PRES   REMARKS
LINCOLN        CLEAR     49  43  80 N10       30.07R
6HR MIN TEMP:  48; 6HR MAX TEMP:  56;

OMAHA EPPLEY   CLEAR     47  42  83 N9        30.05R
6HR MIN TEMP:  47; 6HR MAX TEMP:  54;

BEATRICE       CLEAR     52  44  73 N12G17    30.04R
FALLS CITY     CLEAR     52  45  77 N6        29.99R
6HR MIN TEMP:  52; 6HR MAX TEMP:  57;

NEBRASKA CITY  CLEAR     49  39  68 N6        30.04R
PLATTSMOUTH    PTCLDY    49  40  73 NW3       30.05R
$$

NEZ044-045-051>053-067-281300-
OMAHA AREA

CITY           SKY/WX    TMP DP  RH WIND       PRES   REMARKS
OMAHA EPPLEY   CLEAR     47  42  83 N9        30.05R
6HR MIN TEMP:  47; 6HR MAX TEMP:  54;

BLAIR          CLEAR     47  42  84 N7        30.05R
FREMONT        CLEAR     45  41  84 NW6       30.08R
MILLARD        CLEAR     51  43  74 CALM      30.06R
OFFUTT AFB     CLEAR     49  44  81 N6        30.04R
PLATTSMOUTH    PTCLDY    49  40  73 NW3       30.05R
WAHOO          FAIR      45  42  89 N6        30.07R
$$




USA.gov is the U.S. government's official web portal to all federal, state and local government web resources and services.